FW7665 Weather Reports


time (UTC)temp
F
wind
direction
speed
knots
gust
knots
rain 1hr
in
rain 24hr
in
rain mn
in
humidity
%
barometer
mb
20210801200004 64 275 0.9 4.3 0.00 0.66 0.00 61 1033.8
20210801195404 64 26 0.0 1.7 0.00 0.71 0.00 58 1033.8
20210801194504 64 354 0.9 2.6 0.00 0.76 0.00 61 1033.8
20210801193604 64 329 0.9 3.5 0.00 0.78 0.00 55 1034.5
20210801192704 64 49 0.9 4.3 0.00 0.78 0.00 51 1034.5
20210801191803 64 73 0.9 3.5 0.00 0.78 0.00 60 1034.5
20210801190903 64 73 0.9 3.5 0.00 0.78 0.00 56 1034.5
20210801190004 62 81 0.0 1.7 0.00 0.78 0.00 56 1034.5
20210801185403 62 0 0.0 0.0 0.00 0.78 0.00 53 1034.5
20210801184504 60 0 0.0 0.0 0.00 0.78 0.00 63 1034.5
20210801183603 61 0 0.0 0.0 0.00 0.79 0.00 69 1035.1
20210801182703 60 0 0.0 0.0 0.00 0.81 0.00 72 1035.1
20210801181803 61 0 0.0 0.0 0.00 0.82 0.00 62 1035.1
20210801180903 61 0 0.0 0.0 0.00 0.84 0.00 70 1035.1
20210801180003 62 81 0.0 0.9 0.00 0.86 0.00 60 1035.1
20210801175403 62 81 0.0 0.9 0.00 0.86 0.00 66 1035.1
20210801174504 60 0 0.0 0.0 0.00 0.86 0.00 73 1035.1
20210801173603 59 0 0.0 0.0 0.00 0.86 0.00 79 1035.3
20210801172703 57 0 0.0 0.0 0.00 0.86 0.00 81 1035.3
20210801171803 57 0 0.0 0.0 0.00 0.86 0.00 83 1035.3
20210801170903 58 0 0.0 0.0 0.00 0.86 0.00 81 1035.3
20210801170003 60 0 0.0 0.0 0.00 0.86 0.00 56 1035.3
20210801165403 59 0 0.0 0.0 0.00 0.86 0.00 70 1035.3
20210801164503 57 0 0.0 0.0 0.00 0.86 0.00 68 1035.3
20210801163603 55 0 0.0 0.0 0.00 0.86 0.00 86 1035.2
20210801162707 55 0 0.0 0.0 0.00 0.86 0.00 84 1035.2
20210801161807 55 0 0.0 0.0 0.00 0.86 0.00 86 1035.2
20210801160907 55 0 0.0 0.0 0.00 0.86 0.00 87 1035.2
20210801160007 55 0 0.0 0.0 0.00 0.86 0.00 88 1035.2
20210801155407 55 0 0.0 0.0 0.00 0.86 0.00 88 1035.2
20210801154507 54 0 0.0 0.0 0.00 0.86 0.00 88 1035.2
20210801153607 55 0 0.0 0.0 0.00 0.86 0.00 87 1035.5
20210801152708 54 0 0.0 0.0 0.00 0.86 0.00 89 1035.5
20210801151807 53 0 0.0 0.0 0.00 0.86 0.00 89 1035.5
20210801150907 52 0 0.0 0.0 0.00 0.86 0.00 89 1035.5
20210801150008 52 0 0.0 0.0 0.00 0.86 0.00 89 1035.5
20210801145407 52 0 0.0 0.0 0.00 0.86 0.00 89 1035.5
20210801144507 51 0 0.0 0.0 0.00 0.86 0.00 89 1035.5
20210801143607 50 0 0.0 0.0 0.00 0.86 0.00 89 1035.3
20210801142707 50 0 0.0 0.0 0.00 0.86 0.00 89 1035.3
20210801141807 50 0 0.0 0.0 0.00 0.86 0.00 89 1035.3
20210801140907 50 0 0.0 0.0 0.00 0.86 0.00 89 1035.3
20210801140007 49 0 0.0 0.0 0.00 0.86 0.00 89 1035.3
20210801135407 49 0 0.0 0.0 0.00 0.86 0.00 89 1035.3
20210801134506 49 0 0.0 0.0 0.00 0.86 0.00 89 1035.3
20210801133606 50 0 0.0 0.0 0.00 0.86 0.00 89 1034.9
20210801132707 50 0 0.0 0.0 0.00 0.86 0.00 89 1034.9
20210801131806 50 0 0.0 0.0 0.00 0.86 0.00 89 1034.9
20210801130907 50 0 0.0 0.0 0.00 0.86 0.00 89 1034.9
20210801130006 50 0 0.0 0.0 0.00 0.86 0.00 89 1034.9
20210801125407 50 0 0.0 0.0 0.00 0.86 0.00 89 1034.9
20210801124507 50 0 0.0 0.0 0.00 0.86 0.00 89 1034.9
20210801123607 50 0 0.0 0.0 0.00 0.86 0.00 89 1034.7
20210801122706 50 0 0.0 0.0 0.00 0.86 0.00 89 1034.7
20210801121807 50 0 0.0 0.0 0.00 0.86 0.00 89 1034.7
20210801120906 50 0 0.0 0.0 0.00 0.86 0.00 89 1034.7
20210801120006 50 0 0.0 0.0 0.00 0.86 0.00 89 1034.7
20210801115406 50 0 0.0 0.0 0.00 0.86 0.00 89 1034.7
20210801114506 50 0 0.0 0.0 0.00 0.86 0.00 89 1034.7
20210801113606 50 0 0.0 0.0 0.00 0.86 0.00 89 1034.4
20210801112706 50 0 0.0 0.0 0.00 0.86 0.00 89 1034.4
20210801111806 50 0 0.0 0.0 0.00 0.86 0.00 89 1034.4
20210801110906 50 0 0.0 0.0 0.00 0.86 0.00 89 1034.4
20210801110006 50 0 0.0 0.0 0.00 0.86 0.00 89 1034.4
20210801105406 50 0 0.0 0.0 0.00 0.86 0.00 89 1034.4
20210801104506 50 0 0.0 0.0 0.00 0.86 0.00 89 1034.4
20210801103606 51 0 0.0 0.0 0.00 0.86 0.00 89 1034.4
20210801102706 51 0 0.0 0.0 0.00 0.86 0.00 89 1034.4
20210801101806 51 0 0.0 0.0 0.00 0.86 0.00 89 1034.4
20210801100906 51 0 0.0 0.0 0.00 0.86 0.00 89 1034.4
20210801100006 51 0 0.0 0.0 0.00 0.86 0.00 89 1034.4
20210801095406 51 0 0.0 0.0 0.00 0.86 0.00 89 1034.4
20210801094506 51 0 0.0 0.0 0.00 0.86 0.00 89 1034.4
20210801093606 51 0 0.0 0.0 0.00 0.86 0.00 89 1034.4
20210801092706 51 84 0.0 0.9 0.00 0.86 0.00 88 1034.4
20210801091806 51 0 0.0 0.0 0.00 0.86 0.00 88 1034.4
20210801090906 51 0 0.0 0.0 0.00 0.86 0.00 88 1034.4
20210801090006 51 0 0.0 0.0 0.00 0.86 0.00 88 1034.4
20210801085406 51 0 0.0 0.0 0.00 0.86 0.00 88 1034.4
20210801084506 51 0 0.0 0.0 0.00 0.86 0.00 88 1034.4
20210801083606 52 0 0.0 0.0 0.00 0.86 0.00 88 1034.4
20210801082705 52 0 0.0 0.0 0.00 0.86 0.00 88 1034.4
20210801081806 52 0 0.0 0.0 0.00 0.87 0.00 88 1034.4
20210801080906 52 0 0.0 0.0 0.00 0.87 0.00 88 1034.6
20210801080006 52 0 0.0 0.0 0.00 0.87 0.00 88 1035.5
20210801075406 52 0 0.0 0.0 0.00 0.87 0.00 88 1035.5
20210801074506 52 0 0.0 0.0 0.00 0.87 0.00 88 1035.5
20210801073606 52 0 0.0 0.0 0.00 0.87 0.00 88 1035.5
20210801072706 52 0 0.0 0.0 0.00 0.87 0.00 88 1035.5
20210801071805 52 0 0.0 0.0 0.00 0.87 0.00 88 1035.5
20210801070906 52 0 0.0 0.0 0.00 0.87 0.00 88 1035.5
20210801070006 52 0 0.0 0.0 0.00 0.87 0.00 88 1035.5
20210801065405 52 0 0.0 0.0 0.00 0.87 0.00 88 1035.5
20210801064505 52 0 0.0 0.0 0.00 0.87 0.00 88 1035.5
20210801063606 52 0 0.0 0.0 0.00 0.87 0.00 88 1035.5
20210801062706 52 0 0.0 0.0 0.00 0.87 0.00 88 1035.5
20210801061805 52 0 0.0 0.0 0.00 0.87 0.00 88 1035.5
20210801060905 52 0 0.0 0.0 0.00 0.87 0.00 88 1035.5
20210801060007 52 0 0.0 0.0 0.00 0.87 0.00 88 1035.2
20210801055406 52 0 0.0 0.0 0.00 0.88 0.87 88 1035.2
20210801054505 53 0 0.0 0.0 0.00 0.88 0.87 88 1035.2
20210801053605 53 84 0.0 0.9 0.00 0.89 0.87 88 1035.2
20210801052705 53 0 0.0 0.0 0.00 0.89 0.87 88 1035.2
20210801051805 53 0 0.0 0.0 0.00 0.91 0.87 88 1035.2
20210801050905 53 0 0.0 0.0 0.00 0.95 0.87 88 1035.2
20210801050005 53 0 0.0 0.0 0.00 0.99 0.87 88 1035.1
20210801045405 53 0 0.0 0.0 0.00 1.01 0.87 88 1035.1
20210801044505 54 0 0.0 0.0 0.00 1.03 0.87 88 1035.1
20210801043605 54 0 0.0 0.0 0.00 1.05 0.87 88 1035.1
20210801042705 54 0 0.0 0.0 0.00 1.08 0.87 88 1035.1
20210801041805 54 0 0.0 0.0 0.00 1.11 0.87 88 1035.1
20210801040905 54 0 0.0 0.0 0.00 1.15 0.87 88 1035.1
20210801040005 54 0 0.0 0.0 0.00 1.21 0.87 88 1034.8
20210801035406 54 0 0.0 0.0 0.00 1.26 0.87 88 1034.8
20210801034505 54 0 0.0 0.0 0.00 1.28 0.87 88 1034.8
20210801033605 54 0 0.0 0.0 0.00 1.28 0.87 87 1034.8
20210801032705 54 0 0.0 0.0 0.00 1.28 0.87 87 1034.8
20210801031805 54 0 0.0 0.0 0.00 1.28 0.87 87 1034.8
20210801030905 54 0 0.0 0.0 0.00 1.28 0.87 87 1034.8
20210801030005 54 0 0.0 0.0 0.00 1.28 0.87 87 1033.8
20210801025406 54 0 0.0 0.0 0.00 1.28 0.87 87 1033.8
20210801024505 54 0 0.0 0.0 0.00 1.28 0.87 87 1033.8
20210801023605 54 0 0.0 0.0 0.01 1.28 0.87 87 1033.8
20210801022705 54 0 0.0 0.0 0.01 1.28 0.87 87 1033.8
20210801021805 55 0 0.0 0.0 0.01 1.28 0.87 87 1033.8
20210801020905 55 0 0.0 0.0 0.01 1.28 0.87 87 1033.8
20210801020005 56 0 0.0 0.0 0.01 1.28 0.87 87 1033.8
20210801015405 56 0 0.0 0.0 0.02 1.28 0.87 87 1033.8
20210801014505 56 0 0.0 0.0 0.02 1.28 0.87 87 1033.8
20210801013604 56 0 0.0 0.0 0.02 1.27 0.86 87 1033.8
20210801012705 56 0 0.0 0.0 0.02 1.27 0.86 87 1033.8
20210801011805 56 0 0.0 0.0 0.03 1.27 0.86 87 1033.8
20210801010904 56 0 0.0 0.0 0.04 1.27 0.86 87 1033.8
20210801010005 56 0 0.0 0.0 0.05 1.27 0.86 87 1033.8
20210801005405 56 0 0.0 0.0 0.05 1.26 0.85 87 1033.8
20210801004505 56 0 0.0 0.0 0.06 1.26 0.85 87 1033.8
20210801003605 56 0 0.0 0.0 0.07 1.25 0.84 87 1033.8
20210801002704 56 0 0.0 0.0 0.08 1.25 0.84 87 1033.8
20210801001804 56 0 0.0 0.0 0.10 1.24 0.83 87 1033.8
20210801000904 56 0 0.0 0.0 0.13 1.23 0.82 87 1033.8
20210801000005 56 0 0.0 0.0 0.16 1.22 0.81 87 1033.8
20210731235404 56 0 0.0 0.0 0.17 1.21 0.80 87 1033.8
20210731234504 56 0 0.0 0.0 0.22 1.20 0.79 87 1033.8
20210731233604 56 0 0.0 0.0 0.23 1.18 0.77 87 1033.8
20210731232704 56 0 0.0 0.0 0.24 1.17 0.76 87 1033.8
20210731231804 56 0 0.0 0.0 0.22 1.14 0.73 87 1033.8
20210731230905 57 84 0.0 1.7 0.19 1.10 0.69 86 1033.8
20210731230004 57 0 0.0 0.0 0.17 1.06 0.65 86 1033.8
20210731225404 57 0 0.0 0.0 0.16 1.04 0.63 86 1033.8
20210731224504 57 0 0.0 0.0 0.12 0.98 0.57 86 1033.8
20210731223604 58 0 0.0 0.0 0.11 0.95 0.54 86 1033.8
20210731222704 58 0 0.0 0.0 0.10 0.93 0.52 86 1033.8
20210731221804 58 0 0.0 0.0 0.10 0.92 0.51 86 1033.8
20210731220905 58 0 0.0 0.0 0.09 0.91 0.50 86 1033.8
20210731220004 58 84 0.0 0.9 0.08 0.89 0.48 86 1033.8
20210731215404 58 84 0.0 0.9 0.08 0.88 0.47 86 1033.8
20210731214504 58 0 0.0 0.0 0.09 0.86 0.45 86 1033.8
20210731213604 58 0 0.0 0.0 0.10 0.84 0.43 86 1033.8
20210731212704 58 0 0.0 0.0 0.11 0.83 0.42 86 1033.8
20210731211804 57 0 0.0 0.0 0.11 0.82 0.41 86 1033.8
20210731210904 57 0 0.0 0.0 0.16 0.82 0.41 86 1033.8
20210731210004 57 84 0.0 0.9 0.19 0.81 0.40 86 1033.8
20210731205404 57 84 0.0 0.9 0.23 0.80 0.39 86 1033.8
20210731204504 57 84 0.0 0.9 0.25 0.77 0.36 86 1033.8
20210731203604 57 0 0.0 0.0 0.24 0.74 0.33 86 1033.8
20210731202704 57 0 0.0 0.0 0.22 0.72 0.31 86 1033.8
20210731201804 57 0 0.0 0.0 0.21 0.71 0.30 86 1033.8
20210731200904 57 0 0.0 0.0 0.16 0.66 0.25 86 1033.8